UAL3818 KIND-KSFO

Flight info

Callsign UAL3818
Flight time N/A
Altitude 32000
Route ROCKY1 SPI LEFAM ZIRKL Q136 OAL INYOE DYAMD5
Aircraft B77W/H-SDE1E2E3FGHIJ2J3J4J5M1RWXY/LB1D1

Departure

Time 2026-05-06 18:24
Airport Indianapolis International Airport (KIND)

Arrival

Time N/A
Airport San Francisco International Airport (KSFO)
Time Latitude Longitude Altitude Speed Heading
2026-05-06 17:45 39.71532 -86.29356 787 ft 0 kts 320°
2026-05-06 18:15 39.71515 -86.29337 786 ft 4 kts 320°
2026-05-06 18:15 39.71494 -86.29314 786 ft 4 kts 320°
2026-05-06 18:15 39.71474 -86.29292 786 ft 4 kts 320°
2026-05-06 18:16 39.71456 -86.29272 786 ft 4 kts 332°
2026-05-06 18:16 39.71435 -86.29269 786 ft 4 kts 37°
2026-05-06 18:16 39.71416 -86.29294 786 ft 3 kts 51°
2026-05-06 18:16 39.71414 -86.29297 786 ft 0 kts 50°
2026-05-06 18:19 39.71419 -86.29289 786 ft 4 kts 50°
2026-05-06 18:19 39.71456 -86.29232 786 ft 12 kts 50°
2026-05-06 18:19 39.71524 -86.29125 786 ft 18 kts 50°
2026-05-06 18:19 39.71612 -86.28989 786 ft 16 kts 50°
2026-05-06 18:20 39.71718 -86.28998 786 ft 20 kts 319°
2026-05-06 18:20 39.71821 -86.29128 786 ft 21 kts 314°
2026-05-06 18:20 39.71935 -86.29280 786 ft 26 kts 315°
2026-05-06 18:20 39.72066 -86.29450 786 ft 22 kts 314°
2026-05-06 18:21 39.72185 -86.29607 786 ft 23 kts 314°
2026-05-06 18:21 39.72293 -86.29661 786 ft 19 kts 28°
2026-05-06 18:21 39.72404 -86.29532 785 ft 24 kts 44°
2026-05-06 18:21 39.72529 -86.29374 785 ft 25 kts 44°
2026-05-06 18:22 39.72649 -86.29221 785 ft 24 kts 44°
2026-05-06 18:22 39.72755 -86.29219 785 ft 17 kts 319°
2026-05-06 18:22 39.72786 -86.29343 784 ft 17 kts 237°
2026-05-06 18:22 39.72766 -86.29372 784 ft 0 kts 225°
2026-05-06 18:23 39.72714 -86.29440 784 ft 39 kts 225°
2026-05-06 18:23 39.72331 -86.29925 785 ft 112 kts 224°
2026-05-06 18:23 39.71623 -86.30825 785 ft 170 kts 224°
2026-05-06 18:24 39.70721 -86.31989 1073 ft 191 kts 225°
2026-05-06 18:24 39.69762 -86.33262 1570 ft 203 kts 225°
2026-05-06 18:24 39.68757 -86.34512 2376 ft 194 kts 223°
2026-05-06 18:24 39.67795 -86.35787 2856 ft 207 kts 235°
2026-05-06 18:25 39.67314 -86.37635 3083 ft 230 kts 259°
2026-05-06 18:25 39.66999 -86.39774 3459 ft 248 kts 257°
2026-05-06 18:25 39.66599 -86.41987 4214 ft 255 kts 257°
2026-05-06 18:25 39.66165 -86.44248 5000 ft 261 kts 257°
2026-05-06 18:26 39.65708 -86.46542 5781 ft 264 kts 257°
2026-05-06 18:26 39.65241 -86.48861 6568 ft 267 kts 256°
2026-05-06 18:26 39.64761 -86.51197 7339 ft 269 kts 256°
2026-05-06 18:26 39.64274 -86.53551 8090 ft 271 kts 256°
2026-05-06 18:27 39.63777 -86.55923 8800 ft 274 kts 256°
2026-05-06 18:27 39.63273 -86.58316 9547 ft 276 kts 255°
2026-05-06 18:27 39.62764 -86.60720 10346 ft 276 kts 255°
2026-05-06 18:27 39.62243 -86.63176 10795 ft 292 kts 255°
2026-05-06 18:28 39.61682 -86.65819 11025 ft 316 kts 254°
2026-05-06 18:28 39.61082 -86.68630 11533 ft 330 kts 254°
2026-05-06 18:28 39.60464 -86.71521 12394 ft 334 kts 254°
2026-05-06 18:28 39.59842 -86.74421 13513 ft 332 kts 254°
2026-05-06 18:29 39.59222 -86.77296 14634 ft 331 kts 254°
2026-05-06 18:29 39.58604 -86.80181 15578 ft 333 kts 254°
2026-05-06 18:29 39.57979 -86.83088 16493 ft 335 kts 254°
2026-05-06 18:29 39.57349 -86.86007 17430 ft 337 kts 255°
2026-05-06 18:30 39.56718 -86.88934 18342 ft 338 kts 255°
2026-05-06 18:30 39.56084 -86.91873 19225 ft 339 kts 255°
2026-05-06 18:30 39.55446 -86.94824 20077 ft 341 kts 255°
2026-05-06 18:30 39.54807 -86.97788 20895 ft 342 kts 255°
2026-05-06 18:31 39.54162 -87.00763 21674 ft 344 kts 255°
2026-05-06 18:31 39.53510 -87.03756 22427 ft 346 kts 255°
2026-05-06 18:31 39.52865 -87.06719 23158 ft 347 kts 255°
2026-05-06 18:31 39.52209 -87.09737 23869 ft 349 kts 255°
2026-05-06 18:32 39.51550 -87.12764 24575 ft 350 kts 255°
2026-05-06 18:32 39.50887 -87.15799 25240 ft 351 kts 255°
2026-05-06 18:32 39.50223 -87.18854 25843 ft 354 kts 256°
2026-05-06 18:32 39.49754 -87.21993 26394 ft 356 kts 261°
2026-05-06 18:33 39.49499 -87.25191 26985 ft 358 kts 263°
2026-05-06 18:33 39.49327 -87.28417 27542 ft 360 kts 264°
2026-05-06 18:33 39.49321 -87.31676 28067 ft 364 kts 269°
2026-05-06 18:33 39.49529 -87.34958 28565 ft 367 kts 270°
2026-05-06 18:34 39.49763 -87.38258 29055 ft 369 kts 270°
2026-05-06 18:34 39.50002 -87.41569 29506 ft 370 kts 270°
2026-05-06 18:34 39.50238 -87.44889 29917 ft 372 kts 270°
2026-05-06 18:34 39.50470 -87.48230 30302 ft 373 kts 270°
2026-05-06 18:35 39.50697 -87.51576 30700 ft 374 kts 270°
2026-05-06 18:35 39.50926 -87.54933 31087 ft 374 kts 270°
2026-05-06 18:35 39.51152 -87.58292 31404 ft 375 kts 270°
2026-05-06 18:35 39.51375 -87.61659 31744 ft 375 kts 270°
2026-05-06 18:36 39.51600 -87.65020 31978 ft 377 kts 270°
2026-05-06 18:36 39.51826 -87.68407 32012 ft 377 kts 270°
2026-05-06 18:36 39.52265 -87.75108 32047 ft 371 kts 270°
2026-05-06 18:37 39.52694 -87.81756 32057 ft 370 kts 270°
2026-05-06 18:37 39.53117 -87.88399 32056 ft 370 kts 270°
2026-05-06 18:38 39.53541 -87.95035 32062 ft 370 kts 270°
2026-05-06 18:38 39.53961 -88.01684 32060 ft 370 kts 269°
2026-05-06 18:39 39.54376 -88.08332 32058 ft 370 kts 269°
2026-05-06 18:40 39.54987 -88.18247 32058 ft 370 kts 269°
2026-05-06 18:40 39.55392 -88.24900 32056 ft 370 kts 269°
2026-05-06 18:41 39.55795 -88.31556 32058 ft 371 kts 269°
2026-05-06 18:41 39.56193 -88.38209 32056 ft 370 kts 269°
2026-05-06 18:42 39.56588 -88.44862 32057 ft 370 kts 269°
2026-05-06 18:42 39.56978 -88.51504 32059 ft 370 kts 269°
2026-05-06 18:43 39.57365 -88.58153 32065 ft 370 kts 269°
2026-05-06 18:43 39.57747 -88.64796 32068 ft 370 kts 269°
2026-05-06 18:44 39.58127 -88.71447 32062 ft 370 kts 269°
2026-05-06 18:44 39.58539 -88.78077 32062 ft 370 kts 272°
2026-05-06 18:45 39.59578 -88.84642 32065 ft 373 kts 276°
2026-05-06 18:45 39.61097 -88.91125 32064 ft 379 kts 282°
2026-05-06 18:46 39.63031 -88.97489 32075 ft 379 kts 282°
2026-05-06 18:46 39.64962 -89.03825 32074 ft 379 kts 282°
2026-05-06 18:47 39.66883 -89.10189 32076 ft 379 kts 282°
2026-05-06 18:47 39.68798 -89.16569 32075 ft 379 kts 282°
2026-05-06 18:48 39.70709 -89.22954 32074 ft 379 kts 282°
2026-05-06 18:48 39.72612 -89.29335 32073 ft 379 kts 282°
2026-05-06 18:49 39.74516 -89.35716 32075 ft 379 kts 282°
2026-05-06 18:49 39.76416 -89.42111 32082 ft 379 kts 282°
2026-05-06 18:50 39.78312 -89.48499 32082 ft 378 kts 282°
2026-05-06 18:50 39.80184 -89.54844 32074 ft 378 kts 282°
2026-05-06 18:51 39.82080 -89.61268 32076 ft 379 kts 281°
2026-05-06 18:51 39.83591 -89.67745 32080 ft 371 kts 275°
2026-05-06 18:52 39.84527 -89.74314 32073 ft 367 kts 270°
2026-05-06 18:52 39.85049 -89.80916 32074 ft 367 kts 270°
2026-05-06 18:53 39.85532 -89.87481 32076 ft 367 kts 270°
2026-05-06 18:53 39.86026 -89.94098 32084 ft 367 kts 270°
2026-05-06 18:54 39.86522 -90.00720 32084 ft 368 kts 270°
2026-05-06 18:54 39.87018 -90.07345 32083 ft 368 kts 270°
2026-05-06 18:55 39.87511 -90.13947 32089 ft 367 kts 270°
2026-05-06 18:55 39.87997 -90.20549 32094 ft 367 kts 270°
2026-05-06 18:56 39.88481 -90.27159 32092 ft 366 kts 270°
2026-05-06 18:56 39.88962 -90.33768 32092 ft 367 kts 270°
2026-05-06 18:57 39.89438 -90.40384 32095 ft 367 kts 270°
2026-05-06 18:57 39.89912 -90.46985 32100 ft 366 kts 270°
2026-05-06 18:58 39.90380 -90.53585 32099 ft 366 kts 269°
2026-05-06 18:58 39.90845 -90.60191 32102 ft 366 kts 269°
2026-05-06 18:59 39.91307 -90.66808 32105 ft 367 kts 269°
2026-05-06 18:59 39.91764 -90.73415 32115 ft 367 kts 269°
2026-05-06 19:00 39.92217 -90.79996 32114 ft 367 kts 269°
2026-05-06 19:00 39.92667 -90.86631 32105 ft 367 kts 269°
2026-05-06 19:01 39.93117 -90.93262 32100 ft 367 kts 269°
2026-05-06 19:01 39.93563 -90.99889 32112 ft 367 kts 269°
2026-05-06 19:02 39.94001 -91.06521 32115 ft 367 kts 269°
2026-05-06 19:02 39.94435 -91.13147 32101 ft 367 kts 269°
2026-05-06 19:03 39.94868 -91.19780 32099 ft 367 kts 269°
2026-05-06 19:03 39.95225 -91.25300 32098 ft 367 kts 269°
2026-05-06 19:04 39.95651 -91.31919 32102 ft 368 kts 269°
2026-05-06 19:04 39.96073 -91.38572 32114 ft 367 kts 269°
2026-05-06 19:05 39.96490 -91.45198 32104 ft 367 kts 268°
2026-05-06 19:05 39.96873 -91.51319 32118 ft 366 kts 268°
2026-05-06 19:06 39.97282 -91.57962 32361 ft 369 kts 268°
2026-05-06 19:06 39.97487 -91.61292 32747 ft 367 kts 268°
2026-05-06 19:06 39.97691 -91.64603 33148 ft 365 kts 268°
2026-05-06 19:06 39.97893 -91.67889 33508 ft 363 kts 268°
2026-05-06 19:07 39.98093 -91.71172 33801 ft 363 kts 268°
2026-05-06 19:07 39.98291 -91.74452 34091 ft 362 kts 268°
2026-05-06 19:07 39.98486 -91.77724 34357 ft 362 kts 268°
2026-05-06 19:07 39.98681 -91.81008 34580 ft 363 kts 268°
2026-05-06 19:08 39.98876 -91.84290 34799 ft 363 kts 268°
2026-05-06 19:08 39.99071 -91.87579 35049 ft 363 kts 269°
2026-05-06 19:08 39.99263 -91.90859 35316 ft 363 kts 269°
2026-05-06 19:08 39.99455 -91.94142 35528 ft 364 kts 268°
2026-05-06 19:09 39.99644 -91.97434 35751 ft 364 kts 269°
2026-05-06 19:09 39.99836 -92.00723 35964 ft 364 kts 269°
2026-05-06 19:09 40.00028 -92.04026 36026 ft 367 kts 269°
2026-05-06 19:10 40.00411 -92.10678 36116 ft 367 kts 269°
2026-05-06 19:10 40.00787 -92.17267 36115 ft 362 kts 269°
2026-05-06 19:11 40.01151 -92.23769 36126 ft 362 kts 269°
2026-05-06 19:11 40.01515 -92.30316 36134 ft 362 kts 269°
2026-05-06 19:12 40.01876 -92.36883 36130 ft 364 kts 269°
2026-05-06 19:12 40.02233 -92.43467 36127 ft 365 kts 269°
2026-05-06 19:13 40.02589 -92.50076 36130 ft 366 kts 269°
2026-05-06 19:13 40.02943 -92.56722 36128 ft 368 kts 269°
2026-05-06 19:14 40.03293 -92.63397 36135 ft 369 kts 269°
2026-05-06 19:14 40.03643 -92.70101 36133 ft 371 kts 269°
2026-05-06 19:15 40.03991 -92.76835 36132 ft 372 kts 269°
2026-05-06 19:15 40.04336 -92.83589 36135 ft 373 kts 269°
2026-05-06 19:16 40.04677 -92.90359 36130 ft 374 kts 269°
2026-05-06 19:16 40.05015 -92.97140 36132 ft 375 kts 269°
2026-05-06 19:17 40.05350 -93.03934 36128 ft 375 kts 269°
2026-05-06 19:17 40.05679 -93.10724 36144 ft 375 kts 269°
2026-05-06 19:18 40.06005 -93.17512 36145 ft 375 kts 268°
2026-05-06 19:18 40.06327 -93.24297 36146 ft 374 kts 269°
2026-05-06 19:19 40.06647 -93.31083 36139 ft 374 kts 269°
2026-05-06 19:19 40.06960 -93.37862 36146 ft 374 kts 268°
2026-05-06 19:20 40.07269 -93.44644 36142 ft 374 kts 268°
2026-05-06 19:20 40.07575 -93.51427 36149 ft 374 kts 268°
2026-05-06 19:21 40.07878 -93.58207 36146 ft 374 kts 268°
2026-05-06 19:21 40.08174 -93.64979 36147 ft 374 kts 268°
2026-05-06 19:22 40.08467 -93.71745 36152 ft 373 kts 268°
2026-05-06 19:22 40.08758 -93.78507 36145 ft 373 kts 268°
2026-05-06 19:23 40.09042 -93.85256 36146 ft 372 kts 268°
2026-05-06 19:23 40.09322 -93.91998 36152 ft 371 kts 268°
2026-05-06 19:24 40.09599 -93.98730 36156 ft 371 kts 268°
2026-05-06 19:24 40.09869 -94.05417 36158 ft 371 kts 267°
2026-05-06 19:25 40.10136 -94.12146 36158 ft 371 kts 267°
2026-05-06 19:25 40.10402 -94.18877 36155 ft 371 kts 267°
2026-05-06 19:26 40.10662 -94.25618 36159 ft 372 kts 267°
2026-05-06 19:26 40.10918 -94.32366 36153 ft 372 kts 267°
2026-05-06 19:27 40.11172 -94.39132 36154 ft 373 kts 267°
2026-05-06 19:27 40.11421 -94.45909 36158 ft 374 kts 268°
2026-05-06 19:28 40.11669 -94.52705 36157 ft 375 kts 268°
2026-05-06 19:28 40.11913 -94.59527 36155 ft 377 kts 268°
2026-05-06 19:29 40.12154 -94.66367 36153 ft 378 kts 268°
2026-05-06 19:29 40.12392 -94.73239 36150 ft 379 kts 268°
2026-05-06 19:30 40.12625 -94.80141 36149 ft 381 kts 268°
2026-05-06 19:30 40.12856 -94.87079 36145 ft 382 kts 268°
2026-05-06 19:31 40.13086 -94.94036 36150 ft 384 kts 268°
2026-05-06 19:31 40.13420 -95.04504 36151 ft 385 kts 268°
2026-05-06 19:32 40.13638 -95.11452 36148 ft 385 kts 268°
2026-05-06 19:32 40.13853 -95.18442 36151 ft 385 kts 268°
2026-05-06 19:33 40.14063 -95.25433 36147 ft 385 kts 268°
2026-05-06 19:33 40.14268 -95.32426 36146 ft 385 kts 267°
2026-05-06 19:34 40.14469 -95.39418 36147 ft 385 kts 267°
2026-05-06 19:34 40.14669 -95.46407 36145 ft 385 kts 267°
2026-05-06 19:35 40.14863 -95.53392 36148 ft 384 kts 267°
2026-05-06 19:35 40.15050 -95.60371 36147 ft 384 kts 267°
2026-05-06 19:36 40.15236 -95.67349 36145 ft 384 kts 267°
2026-05-06 19:36 40.15415 -95.74315 36149 ft 384 kts 267°
2026-05-06 19:37 40.15590 -95.81287 36148 ft 384 kts 267°
2026-05-06 19:37 40.15735 -95.87080 36151 ft 383 kts 267°
2026-05-06 19:38 40.15931 -95.95176 36160 ft 383 kts 267°
2026-05-06 19:38 40.16096 -96.02182 36156 ft 383 kts 267°
2026-05-06 19:39 40.16253 -96.09099 36154 ft 383 kts 267°
2026-05-06 19:39 40.16407 -96.16060 36155 ft 383 kts 266°
2026-05-06 19:40 40.16560 -96.23017 36159 ft 383 kts 267°
2026-05-06 19:40 40.16707 -96.29996 36161 ft 384 kts 266°
2026-05-06 19:41 40.16815 -96.36974 36157 ft 384 kts 266°
2026-05-06 19:41 40.16907 -96.43963 36158 ft 385 kts 266°
2026-05-06 19:42 40.16999 -96.50991 36156 ft 387 kts 266°
2026-05-06 19:42 40.17087 -96.58043 36157 ft 389 kts 266°
2026-05-06 19:43 40.17174 -96.65126 36154 ft 390 kts 266°
2026-05-06 19:43 40.17254 -96.72230 36155 ft 392 kts 266°
2026-05-06 19:44 40.17333 -96.79362 36158 ft 393 kts 266°
2026-05-06 19:44 40.17407 -96.86523 36157 ft 395 kts 266°
2026-05-06 19:45 40.17479 -96.93661 36158 ft 396 kts 266°
2026-05-06 19:45 40.17542 -97.00869 36158 ft 397 kts 266°
2026-05-06 19:46 40.17604 -97.08108 36156 ft 399 kts 266°
2026-05-06 19:46 40.17662 -97.15367 36158 ft 399 kts 266°
2026-05-06 19:47 40.17714 -97.22632 36160 ft 400 kts 266°
2026-05-06 19:47 40.17759 -97.29902 36164 ft 400 kts 266°
2026-05-06 19:48 40.17805 -97.37192 36166 ft 401 kts 266°
2026-05-06 19:48 40.17849 -97.44494 36169 ft 402 kts 266°
2026-05-06 19:49 40.17880 -97.51800 36165 ft 402 kts 266°
2026-05-06 19:49 40.17908 -97.59109 36164 ft 402 kts 266°
2026-05-06 19:50 40.17934 -97.66427 36165 ft 403 kts 266°
2026-05-06 19:50 40.17956 -97.73745 36166 ft 402 kts 266°
2026-05-06 19:51 40.17973 -97.81054 36167 ft 401 kts 266°
2026-05-06 19:51 40.17988 -97.88352 36165 ft 402 kts 266°
2026-05-06 19:52 40.17996 -97.94422 36165 ft 402 kts 266°
2026-05-06 19:52 40.17990 -98.01736 36170 ft 402 kts 266°
2026-05-06 19:53 40.17993 -98.09042 36165 ft 401 kts 266°
2026-05-06 19:53 40.17993 -98.16336 36167 ft 401 kts 266°
2026-05-06 19:54 40.17981 -98.23627 36165 ft 401 kts 266°
2026-05-06 19:54 40.17960 -98.30920 36171 ft 401 kts 266°
2026-05-06 19:55 40.17939 -98.38219 36162 ft 402 kts 266°
2026-05-06 19:55 40.17919 -98.45527 36168 ft 402 kts 266°
2026-05-06 19:56 40.17884 -98.52856 36178 ft 404 kts 266°
2026-05-06 19:56 40.17853 -98.60219 36177 ft 405 kts 266°
2026-05-06 19:57 40.17817 -98.67597 36175 ft 407 kts 266°
2026-05-06 19:57 40.17770 -98.75010 36176 ft 408 kts 266°
2026-05-06 19:58 40.17724 -98.82451 36175 ft 410 kts 266°
2026-05-06 19:58 40.17672 -98.89913 36167 ft 411 kts 266°
2026-05-06 19:59 40.17614 -98.97394 36163 ft 412 kts 266°
2026-05-06 19:59 40.17549 -99.04886 36164 ft 413 kts 266°
2026-05-06 20:00 40.17482 -99.12399 36168 ft 414 kts 266°
2026-05-06 20:00 40.17409 -99.19934 36167 ft 415 kts 267°
2026-05-06 20:01 40.17331 -99.27483 36168 ft 416 kts 267°
2026-05-06 20:01 40.17247 -99.35053 36164 ft 416 kts 267°
2026-05-06 20:02 40.17157 -99.42630 36161 ft 417 kts 267°
2026-05-06 20:02 40.17065 -99.50211 36163 ft 417 kts 267°
2026-05-06 20:03 40.16967 -99.57798 36166 ft 417 kts 267°
2026-05-06 20:03 40.16864 -99.65380 36166 ft 417 kts 267°
2026-05-06 20:04 40.16755 -99.72909 36165 ft 417 kts 267°
2026-05-06 20:04 40.16643 -99.80530 36165 ft 416 kts 267°
2026-05-06 20:05 40.16524 -99.88097 36165 ft 416 kts 266°
2026-05-06 20:05 40.16402 -99.95603 36166 ft 416 kts 266°
2026-05-06 20:06 40.16276 -100.03151 36169 ft 415 kts 266°
2026-05-06 20:06 40.16141 -100.10700 36167 ft 415 kts 266°
2026-05-06 20:07 40.16003 -100.18260 36164 ft 416 kts 266°
2026-05-06 20:07 40.15864 -100.25824 36166 ft 416 kts 266°
2026-05-06 20:08 40.15716 -100.33394 36166 ft 417 kts 266°